Погода в Альбукерке

США     35°05′03″N   106°38′55″W
темп.,
°C
ветер,
м/с
пор.,
м/с
влажн.,
%
обл.,
%
осадки,
мм/ч
давл.,
гПа
погр.,
м
16 октября, сб
сб1600:00+10с34240 0.0 102551
03:00+8ссз33300 0.0 102640
06:00+6с22330 0.0 102727
09:00+9ссв11290 0.0 1028200
12:00+14ю01210 0.0 1026699
15:00+18ю23150 0.0 10221089
18:00+17ю33180 0.0 1021218
21:00+14ююв22230 0.0 102323
17 октября, вс
вс1700:00+11юв113017 0.0 102310
03:00+11ю223354 0.0 102310
06:00+9ююз11405 0.0 102210
09:00+12ююв11325 0.0 1023156
12:00+17ю23275 0.0 1020807
15:00+21ююз342227 0.0 10141298
18:00+20ю5727100 0.0 1012350
21:00+17ююв81337100 0.0 1014449
18 октября, пн
пн1800:00+15ю57465 0.0 1014124
03:00+13ю33512 0.0 101436
06:00+11ююв22570 0.0 101325
09:00+14ю34500 0.0 1014226
12:00+21юз67200 0.0 10102102
15:00+23юз79140 0.0 10072693
18:00+22юз57130 0.0 1006323
21:00+16з47200 0.0 1009189
19 октября, вт
вт1900:00+13ююв33290 0.0 101240
03:00+11юз11350 0.0 101221
06:00+10сз11380 0.0 101312
09:00+13зсз36330 0.0 1015377
12:00+18зюз79210 0.0 10141934
15:00+21з810140 0.0 10102611
18:00+19з710160 0.0 1011511
21:00+15с45240 0.0 1015130
20 октября, ср
ср2000:00+13ссз34270 0.0 101759
03:00+11ссз44300 0.0 101965
06:00+9с33324 0.0 102037
09:00+12с34230 0.0 1022234
12:00+16ссз21180 0.0 1021825
15:00+19з22176 0.0 10181334
18:00+18в22203 0.0 1017106
21:00+14в11245 0.0 101911